Year,Month,Day,Hour,Minute,Value (Times are PST for temperature in C)
2022,05,07,00,00,2.80
2022,05,07,00,01,2.70
2022,05,07,00,02,2.70
2022,05,07,00,03,2.70
2022,05,07,00,04,2.70
2022,05,07,00,05,2.80
2022,05,07,00,06,2.70
2022,05,07,00,07,2.70
2022,05,07,00,08,2.70
2022,05,07,00,09,2.70
2022,05,07,00,10,2.70
2022,05,07,00,11,2.70
2022,05,07,00,12,2.70
2022,05,07,00,13,2.70
2022,05,07,00,14,2.70
2022,05,07,00,15,2.70
2022,05,07,00,16,2.70
2022,05,07,00,17,2.70
2022,05,07,00,18,2.80
2022,05,07,00,19,2.80
2022,05,07,00,20,2.80
2022,05,07,00,21,2.80
2022,05,07,00,22,2.80
2022,05,07,00,23,2.70
2022,05,07,00,24,2.70
2022,05,07,00,25,2.70
2022,05,07,00,26,2.70
2022,05,07,00,27,2.70
2022,05,07,00,28,2.70
2022,05,07,00,29,2.70
2022,05,07,00,30,2.70
2022,05,07,00,31,2.70
2022,05,07,00,32,2.70
2022,05,07,00,33,2.70
2022,05,07,00,34,2.70
2022,05,07,00,35,2.70
2022,05,07,00,36,2.70
2022,05,07,00,37,2.70
2022,05,07,00,38,2.70
2022,05,07,00,39,2.70
2022,05,07,00,40,2.70
2022,05,07,00,41,2.70
2022,05,07,00,42,2.70
2022,05,07,00,43,2.70
2022,05,07,00,44,2.70
2022,05,07,00,45,2.70
2022,05,07,00,46,2.70
2022,05,07,00,47,2.70
2022,05,07,00,48,2.70
2022,05,07,00,49,2.70
2022,05,07,00,50,2.70
2022,05,07,00,51,2.60
2022,05,07,00,52,2.60
2022,05,07,00,53,2.60
2022,05,07,00,54,2.60
2022,05,07,00,55,2.50
2022,05,07,00,56,2.50
2022,05,07,00,57,2.50
2022,05,07,00,58,2.40
2022,05,07,00,59,2.40
2022,05,07,01,00,2.40
2022,05,07,01,01,2.40
2022,05,07,01,02,2.40
2022,05,07,01,03,2.40
2022,05,07,01,04,2.40
2022,05,07,01,05,2.40
2022,05,07,01,06,2.40
2022,05,07,01,07,2.40
2022,05,07,01,08,2.40
2022,05,07,01,09,2.40
2022,05,07,01,10,2.50
2022,05,07,01,11,2.40
2022,05,07,01,12,2.40
2022,05,07,01,13,2.40
2022,05,07,01,14,2.40
2022,05,07,01,15,2.40
2022,05,07,01,16,2.40
2022,05,07,01,17,2.40
2022,05,07,01,18,2.40
2022,05,07,01,19,2.30
2022,05,07,01,20,2.30
2022,05,07,01,21,2.30
2022,05,07,01,22,2.30
2022,05,07,01,23,2.30
2022,05,07,01,24,2.30
2022,05,07,01,25,2.20
2022,05,07,01,26,2.20
2022,05,07,01,27,2.20
2022,05,07,01,28,2.20
2022,05,07,01,29,2.20
2022,05,07,01,30,2.20
2022,05,07,01,31,2.20
2022,05,07,01,32,2.10
2022,05,07,01,33,2.10
2022,05,07,01,34,2.10
2022,05,07,01,35,2.10
2022,05,07,01,36,2.10
2022,05,07,01,37,2.10
2022,05,07,01,38,2.10
2022,05,07,01,39,2.10
2022,05,07,01,40,2.00
2022,05,07,01,41,2.00
2022,05,07,01,42,2.00
2022,05,07,01,43,1.90
2022,05,07,01,44,1.90
2022,05,07,01,45,1.90
2022,05,07,01,46,1.90
2022,05,07,01,47,1.90
2022,05,07,01,48,1.90
2022,05,07,01,49,1.90
2022,05,07,01,50,1.90
2022,05,07,01,51,1.90
2022,05,07,01,52,1.80
2022,05,07,01,53,1.80
2022,05,07,01,54,1.80
2022,05,07,01,55,1.90
2022,05,07,01,56,1.80
2022,05,07,01,57,1.80
2022,05,07,01,58,1.80
2022,05,07,01,59,1.80
2022,05,07,02,00,1.80
2022,05,07,02,01,1.80
2022,05,07,02,02,1.80
2022,05,07,02,03,1.80
2022,05,07,02,04,1.80
2022,05,07,02,05,1.80
2022,05,07,02,06,1.80
2022,05,07,02,07,1.80
2022,05,07,02,08,1.80
2022,05,07,02,09,1.80
2022,05,07,02,10,1.80
2022,05,07,02,11,1.80
2022,05,07,02,12,1.80
2022,05,07,02,13,1.80
2022,05,07,02,14,1.70
2022,05,07,02,15,1.70
2022,05,07,02,16,1.70
2022,05,07,02,17,1.70
2022,05,07,02,18,1.70
2022,05,07,02,19,1.70
2022,05,07,02,20,1.70
2022,05,07,02,21,1.70
2022,05,07,02,22,1.70
2022,05,07,02,23,1.70
2022,05,07,02,24,1.70
2022,05,07,02,25,1.70
2022,05,07,02,26,1.70
2022,05,07,02,27,1.70
2022,05,07,02,28,1.70
2022,05,07,02,29,1.70
2022,05,07,02,30,1.70
2022,05,07,02,31,1.70
2022,05,07,02,32,1.70
2022,05,07,02,33,1.70
2022,05,07,02,34,1.70
2022,05,07,02,35,1.70
2022,05,07,02,36,1.60
2022,05,07,02,37,1.60
2022,05,07,02,38,1.60
2022,05,07,02,39,1.60
2022,05,07,02,40,1.60
2022,05,07,02,41,1.60
2022,05,07,02,42,1.60
2022,05,07,02,43,1.60
2022,05,07,02,44,1.60
2022,05,07,02,45,1.60
2022,05,07,02,46,1.60
2022,05,07,02,47,1.60
2022,05,07,02,48,1.50
2022,05,07,02,49,1.60
2022,05,07,02,50,1.60
2022,05,07,02,51,1.50
2022,05,07,02,52,1.60
2022,05,07,02,53,1.50
2022,05,07,02,54,1.50
2022,05,07,02,55,1.50
2022,05,07,02,56,1.50
2022,05,07,02,57,1.50
2022,05,07,02,58,1.50
2022,05,07,02,59,1.50
2022,05,07,03,00,1.50
2022,05,07,03,01,1.50
2022,05,07,03,02,1.50
2022,05,07,03,03,1.50
2022,05,07,03,04,1.50
2022,05,07,03,05,1.50
2022,05,07,03,06,1.50
2022,05,07,03,07,1.50
2022,05,07,03,08,1.50
2022,05,07,03,09,1.60
2022,05,07,03,10,1.60
2022,05,07,03,11,1.60
2022,05,07,03,12,1.50
2022,05,07,03,13,1.60
2022,05,07,03,14,1.60
2022,05,07,03,15,1.60
2022,05,07,03,16,1.60
2022,05,07,03,17,1.60
2022,05,07,03,18,1.50
2022,05,07,03,19,1.50
2022,05,07,03,20,1.50
2022,05,07,03,21,1.50
2022,05,07,03,22,1.50
2022,05,07,03,23,1.50
2022,05,07,03,24,1.50
2022,05,07,03,25,1.40
2022,05,07,03,26,1.40
2022,05,07,03,27,1.40
2022,05,07,03,28,1.40
2022,05,07,03,29,1.40
2022,05,07,03,30,1.50
2022,05,07,03,31,1.50
2022,05,07,03,32,1.50
2022,05,07,03,33,1.50
2022,05,07,03,34,1.50
2022,05,07,03,35,1.50
2022,05,07,03,36,1.50
2022,05,07,03,37,1.40
2022,05,07,03,38,1.40
2022,05,07,03,39,1.40
2022,05,07,03,40,1.40
2022,05,07,03,41,1.40
2022,05,07,03,42,1.40
2022,05,07,03,43,1.40
2022,05,07,03,44,1.40
2022,05,07,03,45,1.40
2022,05,07,03,46,1.40
2022,05,07,03,47,1.40
2022,05,07,03,48,1.40
2022,05,07,03,49,1.40
2022,05,07,03,50,1.40
2022,05,07,03,51,1.30
2022,05,07,03,52,1.30
2022,05,07,03,53,1.30
2022,05,07,03,54,1.30
2022,05,07,03,55,1.30
2022,05,07,03,56,1.30
2022,05,07,03,57,1.30
2022,05,07,03,58,1.30
2022,05,07,03,59,1.30
2022,05,07,04,00,1.30
2022,05,07,04,01,1.30
2022,05,07,04,02,1.30
2022,05,07,04,03,1.30
2022,05,07,04,04,1.30
2022,05,07,04,05,1.30
2022,05,07,04,06,1.30
2022,05,07,04,07,1.30
2022,05,07,04,08,1.30
2022,05,07,04,09,1.30
2022,05,07,04,10,1.30
2022,05,07,04,11,1.30
2022,05,07,04,12,1.30
2022,05,07,04,13,1.30
2022,05,07,04,14,1.30
2022,05,07,04,15,1.30
2022,05,07,04,16,1.30
2022,05,07,04,17,1.30
2022,05,07,04,18,1.30
2022,05,07,04,19,1.30
2022,05,07,04,20,1.30
2022,05,07,04,21,1.30
2022,05,07,04,22,1.30
2022,05,07,04,23,1.30
2022,05,07,04,24,1.30
2022,05,07,04,25,1.30
2022,05,07,04,26,1.30
2022,05,07,04,27,1.30
2022,05,07,04,28,1.30
2022,05,07,04,29,1.30
2022,05,07,04,30,1.30
2022,05,07,04,31,1.30
2022,05,07,04,32,1.30
2022,05,07,04,33,1.30
2022,05,07,04,34,1.30
2022,05,07,04,35,1.30
2022,05,07,04,36,1.30
2022,05,07,04,37,1.30
2022,05,07,04,38,1.30
2022,05,07,04,39,1.30
2022,05,07,04,40,1.30
2022,05,07,04,41,1.30
2022,05,07,04,42,1.30
2022,05,07,04,43,1.30
2022,05,07,04,44,1.30
2022,05,07,04,45,1.30
2022,05,07,04,46,1.30
2022,05,07,04,47,1.30
2022,05,07,04,48,1.30
2022,05,07,04,49,1.20
2022,05,07,04,50,1.20
2022,05,07,04,51,1.20
2022,05,07,04,52,1.20
2022,05,07,04,53,1.20
2022,05,07,04,54,1.20
2022,05,07,04,55,1.20
2022,05,07,04,56,1.20
2022,05,07,04,57,1.20
2022,05,07,04,58,1.20
2022,05,07,04,59,1.20
2022,05,07,05,00,1.20
2022,05,07,05,01,1.20
2022,05,07,05,02,1.10
2022,05,07,05,03,1.10
2022,05,07,05,04,1.10
2022,05,07,05,05,1.10
2022,05,07,05,06,1.10
2022,05,07,05,07,1.10
2022,05,07,05,08,1.10
2022,05,07,05,09,1.10
2022,05,07,05,10,1.10
2022,05,07,05,11,1.10
2022,05,07,05,12,1.10
2022,05,07,05,13,1.10
2022,05,07,05,14,1.10
2022,05,07,05,15,1.10
2022,05,07,05,16,1.10
2022,05,07,05,17,1.10
2022,05,07,05,18,1.10
2022,05,07,05,19,1.10
2022,05,07,05,20,1.10
2022,05,07,05,21,1.10
2022,05,07,05,22,1.10
2022,05,07,05,23,1.10
2022,05,07,05,24,1.10
2022,05,07,05,25,1.10
2022,05,07,05,26,1.00
2022,05,07,05,27,1.00
2022,05,07,05,28,1.00
2022,05,07,05,29,1.00
2022,05,07,05,30,1.00
2022,05,07,05,31,1.00
2022,05,07,05,32,1.00
2022,05,07,05,33,1.00
2022,05,07,05,34,1.00
2022,05,07,05,35,1.00
2022,05,07,05,36,1.00
2022,05,07,05,37,1.00
2022,05,07,05,38,1.00
2022,05,07,05,39,1.00
2022,05,07,05,40,1.00
2022,05,07,05,41,1.00
2022,05,07,05,42,1.00
2022,05,07,05,43,1.00
2022,05,07,05,44,1.00
2022,05,07,05,45,1.00
2022,05,07,05,46,1.00
2022,05,07,05,47,1.00
2022,05,07,05,48,1.00
2022,05,07,05,49,1.00
2022,05,07,05,50,1.00
2022,05,07,05,51,1.00
2022,05,07,05,52,1.00
2022,05,07,05,53,1.00
2022,05,07,05,54,1.00
2022,05,07,05,55,1.00
2022,05,07,05,56,1.00
2022,05,07,05,57,1.00
2022,05,07,05,58,1.00
2022,05,07,05,59,0.90
2022,05,07,06,00,0.90
2022,05,07,06,01,0.90
2022,05,07,06,02,0.90
2022,05,07,06,03,0.90
2022,05,07,06,04,0.90
2022,05,07,06,05,0.90
2022,05,07,06,06,0.90
2022,05,07,06,07,0.90
2022,05,07,06,08,0.90
2022,05,07,06,09,0.90
2022,05,07,06,10,0.90
2022,05,07,06,11,0.90
2022,05,07,06,12,0.90
2022,05,07,06,13,0.90
2022,05,07,06,14,0.90
2022,05,07,06,15,0.90
2022,05,07,06,16,0.90
2022,05,07,06,17,0.90
2022,05,07,06,18,0.90
2022,05,07,06,19,0.90
2022,05,07,06,20,0.90
2022,05,07,06,21,0.90
2022,05,07,06,22,0.90
2022,05,07,06,23,0.90
2022,05,07,06,24,0.90
2022,05,07,06,25,0.90
2022,05,07,06,26,0.90
2022,05,07,06,27,0.90
2022,05,07,06,28,0.90
2022,05,07,06,29,0.90
2022,05,07,06,30,0.90
2022,05,07,06,31,0.90
2022,05,07,06,32,0.90
2022,05,07,06,33,0.90
2022,05,07,06,34,0.90
2022,05,07,06,35,0.90
2022,05,07,06,36,0.90
2022,05,07,06,37,0.90
2022,05,07,06,38,0.90
2022,05,07,06,39,0.90
2022,05,07,06,40,0.90
2022,05,07,06,41,0.90
2022,05,07,06,42,0.90
2022,05,07,06,43,0.90
2022,05,07,06,44,0.90
2022,05,07,06,45,0.90
2022,05,07,06,46,0.90
2022,05,07,06,47,0.90
2022,05,07,06,48,0.90
2022,05,07,06,49,1.00
2022,05,07,06,50,1.00
2022,05,07,06,51,1.00
2022,05,07,06,52,1.00
2022,05,07,06,53,0.90
2022,05,07,06,54,0.90
2022,05,07,06,55,0.90
2022,05,07,06,56,1.00
2022,05,07,06,57,1.00
2022,05,07,06,58,1.00
2022,05,07,06,59,0.90
2022,05,07,07,00,0.90
2022,05,07,07,01,0.90
2022,05,07,07,02,0.90
2022,05,07,07,03,0.90
2022,05,07,07,04,0.90
2022,05,07,07,05,0.90
2022,05,07,07,06,1.00
2022,05,07,07,07,0.90
2022,05,07,07,08,1.00
2022,05,07,07,09,1.00
2022,05,07,07,10,1.00
2022,05,07,07,11,1.00
2022,05,07,07,12,1.00
2022,05,07,07,13,1.10
2022,05,07,07,14,1.10
2022,05,07,07,15,1.10
2022,05,07,07,16,1.10
2022,05,07,07,17,1.10
2022,05,07,07,18,1.10
2022,05,07,07,19,1.10
2022,05,07,07,20,1.10
2022,05,07,07,21,1.10
2022,05,07,07,22,1.10
2022,05,07,07,23,1.10
2022,05,07,07,24,1.10
2022,05,07,07,25,1.10
2022,05,07,07,26,1.10
2022,05,07,07,27,1.10
2022,05,07,07,28,1.10
2022,05,07,07,29,1.10
2022,05,07,07,30,1.10
2022,05,07,07,31,1.10
2022,05,07,07,32,1.10
2022,05,07,07,33,1.10
2022,05,07,07,34,1.10
2022,05,07,07,35,1.10
2022,05,07,07,36,1.10
2022,05,07,07,37,1.10
2022,05,07,07,38,1.10
2022,05,07,07,39,1.10
2022,05,07,07,40,1.10
2022,05,07,07,41,1.10
2022,05,07,07,42,1.10
2022,05,07,07,43,1.10
2022,05,07,07,44,1.10
2022,05,07,07,45,1.10
2022,05,07,07,46,1.10
2022,05,07,07,47,1.10
2022,05,07,07,48,1.10
2022,05,07,07,49,1.10
2022,05,07,07,50,1.10
2022,05,07,07,51,1.10
2022,05,07,07,52,1.10
2022,05,07,07,53,1.10
2022,05,07,07,54,1.10
2022,05,07,07,55,1.10
2022,05,07,07,56,1.10
2022,05,07,07,57,1.10
2022,05,07,07,58,1.10
2022,05,07,07,59,1.10
2022,05,07,08,00,1.10
2022,05,07,08,01,1.10
2022,05,07,08,02,1.10
2022,05,07,08,03,1.10
2022,05,07,08,04,1.10
2022,05,07,08,05,1.10
2022,05,07,08,06,1.10
2022,05,07,08,07,1.10
2022,05,07,08,08,1.10
2022,05,07,08,09,1.10
2022,05,07,08,10,1.20
2022,05,07,08,11,1.20
2022,05,07,08,12,1.20
2022,05,07,08,13,1.20
2022,05,07,08,14,1.20
2022,05,07,08,15,1.20
2022,05,07,08,16,1.20
2022,05,07,08,17,1.20
2022,05,07,08,18,1.20
2022,05,07,08,19,1.20
2022,05,07,08,20,1.20
2022,05,07,08,21,1.20
2022,05,07,08,22,1.20
2022,05,07,08,23,1.20
2022,05,07,08,24,1.30
2022,05,07,08,25,1.30
2022,05,07,08,26,1.30
2022,05,07,08,27,1.30
2022,05,07,08,28,1.30
2022,05,07,08,29,1.30
2022,05,07,08,30,1.30
2022,05,07,08,31,1.30
2022,05,07,08,32,1.30
2022,05,07,08,33,1.30
2022,05,07,08,34,1.40
2022,05,07,08,35,1.40
2022,05,07,08,36,1.40
2022,05,07,08,37,1.50
2022,05,07,08,38,1.50
2022,05,07,08,39,1.50
2022,05,07,08,40,1.50
2022,05,07,08,41,1.50
2022,05,07,08,42,1.50
2022,05,07,08,43,1.50
2022,05,07,08,44,1.60
2022,05,07,08,45,1.60
2022,05,07,08,46,1.60
2022,05,07,08,47,1.60
2022,05,07,08,48,1.60
2022,05,07,08,49,1.60
2022,05,07,08,50,1.60
2022,05,07,08,51,1.60
2022,05,07,08,52,1.60
2022,05,07,08,53,1.60
2022,05,07,08,54,1.70
2022,05,07,08,55,1.70
2022,05,07,08,56,1.70
2022,05,07,08,57,1.70
2022,05,07,08,58,1.70
2022,05,07,08,59,1.80
2022,05,07,09,00,1.80
2022,05,07,09,01,1.80
2022,05,07,09,02,1.80
2022,05,07,09,03,1.80
2022,05,07,09,04,1.90
2022,05,07,09,05,1.90
2022,05,07,09,06,1.90
2022,05,07,09,07,1.90
2022,05,07,09,08,1.90
2022,05,07,09,09,1.90
2022,05,07,09,10,1.90
2022,05,07,09,11,1.90
2022,05,07,09,12,1.90
2022,05,07,09,13,1.90
2022,05,07,09,14,1.90
2022,05,07,09,15,1.90
2022,05,07,09,16,1.90
2022,05,07,09,17,1.90
2022,05,07,09,18,1.90
2022,05,07,09,19,1.90
2022,05,07,09,20,1.90
2022,05,07,09,21,1.90
2022,05,07,09,22,1.90
2022,05,07,09,23,1.90
2022,05,07,09,24,1.90
2022,05,07,09,25,2.00
2022,05,07,09,26,2.00
2022,05,07,09,27,2.00
2022,05,07,09,28,2.00
2022,05,07,09,29,2.10
2022,05,07,09,30,2.10
2022,05,07,09,31,2.10
2022,05,07,09,32,2.20
2022,05,07,09,33,2.20
2022,05,07,09,34,2.20
2022,05,07,09,35,2.30
2022,05,07,09,36,2.30
2022,05,07,09,37,2.30
2022,05,07,09,38,2.30
2022,05,07,09,39,2.40
2022,05,07,09,40,2.40
2022,05,07,09,41,2.40
2022,05,07,09,42,2.40
2022,05,07,09,43,2.40
2022,05,07,09,44,2.30
2022,05,07,09,45,2.30
2022,05,07,09,46,2.30
2022,05,07,09,47,2.30
2022,05,07,09,48,2.30
2022,05,07,09,49,2.30
2022,05,07,09,50,2.30
2022,05,07,09,51,2.30
2022,05,07,09,52,2.30
2022,05,07,09,53,2.30
2022,05,07,09,54,2.30
2022,05,07,09,55,2.40
2022,05,07,09,56,2.40
2022,05,07,09,57,2.50
2022,05,07,09,58,2.50
2022,05,07,09,59,2.60
2022,05,07,10,00,2.60
2022,05,07,10,01,2.70
2022,05,07,10,02,2.70
2022,05,07,10,03,2.80
2022,05,07,10,04,2.90
2022,05,07,10,05,3.00
2022,05,07,10,06,3.00
2022,05,07,10,07,3.20
2022,05,07,10,08,3.30
2022,05,07,10,09,3.30
2022,05,07,10,10,3.40
2022,05,07,10,11,3.50
2022,05,07,10,12,3.50
2022,05,07,10,13,3.60
2022,05,07,10,14,3.60
2022,05,07,10,15,3.70
2022,05,07,10,16,3.70
2022,05,07,10,17,3.80
2022,05,07,10,18,3.90
2022,05,07,10,19,4.00
2022,05,07,10,20,4.10
2022,05,07,10,21,4.20
2022,05,07,10,22,4.20
2022,05,07,10,23,4.20
2022,05,07,10,24,4.20
2022,05,07,10,25,4.20
2022,05,07,10,26,4.20
2022,05,07,10,27,4.20
2022,05,07,10,28,4.30
2022,05,07,10,29,4.30
2022,05,07,10,30,4.30
2022,05,07,10,31,4.40
2022,05,07,10,32,4.50
2022,05,07,10,33,4.60
2022,05,07,10,34,4.60
2022,05,07,10,35,4.70
2022,05,07,10,36,4.70
2022,05,07,10,37,4.80
2022,05,07,10,38,4.90
2022,05,07,10,39,5.00
2022,05,07,10,40,5.10
2022,05,07,10,41,5.20
2022,05,07,10,42,5.20
2022,05,07,10,43,5.30
2022,05,07,10,44,5.30
2022,05,07,10,45,5.30
2022,05,07,10,46,5.30
2022,05,07,10,47,5.30
2022,05,07,10,48,5.30
2022,05,07,10,49,5.40
2022,05,07,10,50,5.40
2022,05,07,10,51,5.50
2022,05,07,10,52,5.50
2022,05,07,10,53,5.60
2022,05,07,10,54,5.60
2022,05,07,10,55,5.70
2022,05,07,10,56,5.70
2022,05,07,10,57,5.80
2022,05,07,10,58,5.80
2022,05,07,10,59,5.80
2022,05,07,11,00,5.90
2022,05,07,11,01,5.90
2022,05,07,11,02,6.00
2022,05,07,11,03,6.00
2022,05,07,11,04,6.10
2022,05,07,11,05,6.20
2022,05,07,11,06,6.30
2022,05,07,11,07,6.30
2022,05,07,11,08,6.40
2022,05,07,11,09,6.50
2022,05,07,11,10,6.60
2022,05,07,11,11,6.70
2022,05,07,11,12,6.90
2022,05,07,11,13,7.00
2022,05,07,11,14,7.10
2022,05,07,11,15,7.20
2022,05,07,11,16,7.30
2022,05,07,11,17,7.50
2022,05,07,11,18,7.60
2022,05,07,11,19,7.70
2022,05,07,11,20,7.80
2022,05,07,11,21,7.90
2022,05,07,11,22,8.00
2022,05,07,11,23,8.00
2022,05,07,11,24,8.10
2022,05,07,11,25,8.20
2022,05,07,11,26,8.30
2022,05,07,11,27,8.30
2022,05,07,11,28,8.30
2022,05,07,11,29,8.30
2022,05,07,11,30,8.20
2022,05,07,11,31,8.20
2022,05,07,11,32,8.20
2022,05,07,11,33,8.20
2022,05,07,11,34,8.10
2022,05,07,11,35,8.10
2022,05,07,11,36,8.10
2022,05,07,11,37,8.10
2022,05,07,11,38,8.10
2022,05,07,11,39,8.20
2022,05,07,11,40,8.20
2022,05,07,11,41,8.30
2022,05,07,11,42,8.30
2022,05,07,11,43,8.30
2022,05,07,11,44,8.20
2022,05,07,11,45,8.10
2022,05,07,11,46,8.10
2022,05,07,11,47,8.10
2022,05,07,11,48,8.00
2022,05,07,11,49,8.00
2022,05,07,11,50,8.10
2022,05,07,11,51,8.10
2022,05,07,11,52,8.10
2022,05,07,11,53,8.20
2022,05,07,11,54,8.30
2022,05,07,11,55,8.30
2022,05,07,11,56,8.40
2022,05,07,11,57,8.40
2022,05,07,11,58,8.50
2022,05,07,11,59,8.50
2022,05,07,12,00,8.50
2022,05,07,12,01,8.60
2022,05,07,12,02,8.60
2022,05,07,12,03,8.70
2022,05,07,12,04,8.70
2022,05,07,12,05,8.70
2022,05,07,12,06,8.70
2022,05,07,12,07,8.70
2022,05,07,12,08,8.80
2022,05,07,12,09,8.80
2022,05,07,12,10,8.80
2022,05,07,12,11,8.80
2022,05,07,12,12,8.80
2022,05,07,12,13,8.80
2022,05,07,12,14,8.90
2022,05,07,12,15,9.00
2022,05,07,12,16,9.00
2022,05,07,12,17,9.10
2022,05,07,12,18,9.20
2022,05,07,12,19,9.20
2022,05,07,12,20,9.30
2022,05,07,12,21,9.30
2022,05,07,12,22,9.30
2022,05,07,12,23,9.30
2022,05,07,12,24,9.30
2022,05,07,12,25,9.20
2022,05,07,12,26,9.20
2022,05,07,12,27,9.20
2022,05,07,12,28,9.20
2022,05,07,12,29,9.30
2022,05,07,12,30,9.30
2022,05,07,12,31,9.40
2022,05,07,12,32,9.50
2022,05,07,12,33,9.60
2022,05,07,12,34,9.60
2022,05,07,12,35,9.70
2022,05,07,12,36,9.80
2022,05,07,12,37,9.80
2022,05,07,12,38,9.80
2022,05,07,12,39,9.90
2022,05,07,12,40,10.00
2022,05,07,12,41,10.10
2022,05,07,12,42,10.10
2022,05,07,12,43,10.10
2022,05,07,12,44,10.10
2022,05,07,12,45,10.10
2022,05,07,12,46,10.10
2022,05,07,12,47,10.00
2022,05,07,12,48,10.00
2022,05,07,12,49,9.90
2022,05,07,12,50,9.80
2022,05,07,12,51,9.70
2022,05,07,12,52,9.70
2022,05,07,12,53,9.70
2022,05,07,12,54,9.60
2022,05,07,12,55,9.60
2022,05,07,12,56,9.60
2022,05,07,12,57,9.60
2022,05,07,12,58,9.50
2022,05,07,12,59,9.50
2022,05,07,13,00,9.50
2022,05,07,13,01,9.60
2022,05,07,13,02,9.60
2022,05,07,13,03,9.70
2022,05,07,13,04,9.70
2022,05,07,13,05,9.70
2022,05,07,13,06,9.60
2022,05,07,13,07,9.60
2022,05,07,13,08,9.60
2022,05,07,13,09,9.70
2022,05,07,13,10,9.70
2022,05,07,13,11,9.70
2022,05,07,13,12,9.70
2022,05,07,13,13,9.80
2022,05,07,13,14,9.80
2022,05,07,13,15,9.90
2022,05,07,13,16,9.90
2022,05,07,13,17,9.90
2022,05,07,13,18,10.00
2022,05,07,13,19,10.00
2022,05,07,13,20,10.00
2022,05,07,13,21,10.10
2022,05,07,13,22,10.10
2022,05,07,13,23,10.10
2022,05,07,13,24,10.10
2022,05,07,13,25,10.10
2022,05,07,13,26,10.00
2022,05,07,13,27,10.00
2022,05,07,13,28,10.00
2022,05,07,13,29,10.00
2022,05,07,13,30,10.00
2022,05,07,13,31,9.90
2022,05,07,13,32,9.90
2022,05,07,13,33,9.90
2022,05,07,13,34,9.90
2022,05,07,13,35,9.90
2022,05,07,13,36,9.90
2022,05,07,13,37,9.90
2022,05,07,13,38,9.90
2022,05,07,13,39,9.90
2022,05,07,13,40,9.90
2022,05,07,13,41,9.90
2022,05,07,13,42,9.80
2022,05,07,13,43,9.80
2022,05,07,13,44,9.70
2022,05,07,13,45,9.80
2022,05,07,13,46,9.80
2022,05,07,13,47,9.70
2022,05,07,13,48,9.70
2022,05,07,13,49,9.70
2022,05,07,13,50,9.70
2022,05,07,13,51,9.60
2022,05,07,13,52,9.60
2022,05,07,13,53,9.50
2022,05,07,13,54,9.50
2022,05,07,13,55,9.40
2022,05,07,13,56,9.40
2022,05,07,13,57,9.40
2022,05,07,13,58,9.30
2022,05,07,13,59,9.30
2022,05,07,14,00,9.30
2022,05,07,14,01,9.30
2022,05,07,14,02,9.30
2022,05,07,14,03,9.20
2022,05,07,14,04,9.20
2022,05,07,14,05,9.20
2022,05,07,14,06,9.20
2022,05,07,14,07,9.30
2022,05,07,14,08,9.30
2022,05,07,14,09,9.40
2022,05,07,14,10,9.40
2022,05,07,14,11,9.40
2022,05,07,14,12,9.50
2022,05,07,14,13,9.50
2022,05,07,14,14,9.60
2022,05,07,14,15,9.60
2022,05,07,14,16,9.70
2022,05,07,14,17,9.70
2022,05,07,14,18,9.70
2022,05,07,14,19,9.70
2022,05,07,14,20,9.70
2022,05,07,14,21,9.70
2022,05,07,14,22,9.70
2022,05,07,14,23,9.80
2022,05,07,14,24,9.80
2022,05,07,14,25,9.90
2022,05,07,14,26,9.90
2022,05,07,14,27,10.00
2022,05,07,14,28,10.00
2022,05,07,14,29,10.10
2022,05,07,14,30,10.10
2022,05,07,14,31,10.20
2022,05,07,14,32,10.20
2022,05,07,14,33,10.20
2022,05,07,14,34,10.30
2022,05,07,14,35,10.30
2022,05,07,14,36,10.30
2022,05,07,14,37,10.30
2022,05,07,14,38,10.30
2022,05,07,14,39,10.30
2022,05,07,14,40,10.40
2022,05,07,14,41,10.40
2022,05,07,14,42,10.40
2022,05,07,14,43,10.50
2022,05,07,14,44,10.50
2022,05,07,14,45,10.50
2022,05,07,14,46,10.50
2022,05,07,14,47,10.40
2022,05,07,14,48,10.50
2022,05,07,14,49,10.50
2022,05,07,14,50,10.50
2022,05,07,14,51,10.50
2022,05,07,14,52,10.60
2022,05,07,14,53,10.60
2022,05,07,14,54,10.60
2022,05,07,14,55,10.60
2022,05,07,14,56,10.60
2022,05,07,14,57,10.60
2022,05,07,14,58,10.60
2022,05,07,14,59,10.60
2022,05,07,15,00,10.60
2022,05,07,15,01,10.60
2022,05,07,15,02,10.70
2022,05,07,15,03,10.70
2022,05,07,15,04,10.80
2022,05,07,15,05,10.80
2022,05,07,15,06,10.90
2022,05,07,15,07,11.00
2022,05,07,15,08,11.00
2022,05,07,15,09,11.10
2022,05,07,15,10,11.10
2022,05,07,15,11,11.20
2022,05,07,15,12,11.20
2022,05,07,15,13,11.20
2022,05,07,15,14,11.20
2022,05,07,15,15,11.30
2022,05,07,15,16,11.30
2022,05,07,15,17,11.30
2022,05,07,15,18,11.30
2022,05,07,15,19,11.30
2022,05,07,15,20,11.30
2022,05,07,15,21,11.30
2022,05,07,15,22,11.30
2022,05,07,15,23,11.30
2022,05,07,15,24,11.30
2022,05,07,15,25,11.30
2022,05,07,15,26,11.30
2022,05,07,15,27,11.30
2022,05,07,15,28,11.30
2022,05,07,15,29,11.30
2022,05,07,15,30,11.30
2022,05,07,15,31,11.30
2022,05,07,15,32,11.30
2022,05,07,15,33,11.30
2022,05,07,15,34,11.30
2022,05,07,15,35,11.30
2022,05,07,15,36,11.20
2022,05,07,15,37,11.20
2022,05,07,15,38,11.20
2022,05,07,15,39,11.10
2022,05,07,15,40,11.00
2022,05,07,15,41,10.90
2022,05,07,15,42,10.80
2022,05,07,15,43,10.70
2022,05,07,15,44,10.70
2022,05,07,15,45,10.60
2022,05,07,15,46,10.60
2022,05,07,15,47,10.50
2022,05,07,15,48,10.40
2022,05,07,15,49,10.40
2022,05,07,15,50,10.40
2022,05,07,15,51,10.40
2022,05,07,15,52,10.40
2022,05,07,15,53,10.40
2022,05,07,15,54,10.40
2022,05,07,15,55,10.40
2022,05,07,15,56,10.40
2022,05,07,15,57,10.40
2022,05,07,15,58,10.40
2022,05,07,15,59,10.40
2022,05,07,16,00,10.40
2022,05,07,16,01,10.30
2022,05,07,16,02,10.30
2022,05,07,16,03,10.20
2022,05,07,16,04,10.20
2022,05,07,16,05,10.20
2022,05,07,16,06,10.10
2022,05,07,16,07,10.10
2022,05,07,16,08,10.10
2022,05,07,16,09,10.10
2022,05,07,16,10,10.10
2022,05,07,16,11,10.10
2022,05,07,16,12,10.10
2022,05,07,16,13,10.10
2022,05,07,16,14,10.00
2022,05,07,16,15,10.00
2022,05,07,16,16,9.90
2022,05,07,16,17,9.90
2022,05,07,16,18,9.90
2022,05,07,16,19,9.80
2022,05,07,16,20,9.80
2022,05,07,16,21,9.80
2022,05,07,16,22,9.70
2022,05,07,16,23,9.70
2022,05,07,16,24,9.60
2022,05,07,16,25,9.60
2022,05,07,16,26,9.50
2022,05,07,16,27,9.50
2022,05,07,16,28,9.40
2022,05,07,16,29,9.40
2022,05,07,16,30,9.30
2022,05,07,16,31,9.30
2022,05,07,16,32,9.30
2022,05,07,16,33,9.20
2022,05,07,16,34,9.20
2022,05,07,16,35,9.20
2022,05,07,16,36,9.20
2022,05,07,16,37,9.20
2022,05,07,16,38,9.30
2022,05,07,16,39,9.30
2022,05,07,16,40,9.30
2022,05,07,16,41,9.30
2022,05,07,16,42,9.30
2022,05,07,16,43,9.30
2022,05,07,16,44,9.30
2022,05,07,16,45,9.30
2022,05,07,16,46,9.30
2022,05,07,16,47,9.30
2022,05,07,16,48,9.30
2022,05,07,16,49,9.30
2022,05,07,16,50,9.30
2022,05,07,16,51,9.30
2022,05,07,16,52,9.40
2022,05,07,16,53,9.40
2022,05,07,16,54,9.40
2022,05,07,16,55,9.50
2022,05,07,16,56,9.50
2022,05,07,16,57,9.60
2022,05,07,16,58,9.60
2022,05,07,16,59,9.70
2022,05,07,17,00,9.70
2022,05,07,17,01,9.70
2022,05,07,17,02,9.80
2022,05,07,17,03,9.80
2022,05,07,17,04,9.80
2022,05,07,17,05,9.80
2022,05,07,17,06,9.90
2022,05,07,17,07,9.90
2022,05,07,17,08,9.90
2022,05,07,17,09,10.00
2022,05,07,17,10,10.00
2022,05,07,17,11,10.00
2022,05,07,17,12,10.00
2022,05,07,17,13,10.00
2022,05,07,17,14,9.90
2022,05,07,17,15,9.90
2022,05,07,17,16,9.90
2022,05,07,17,17,9.90
2022,05,07,17,18,9.90
2022,05,07,17,19,9.90
2022,05,07,17,20,9.90
2022,05,07,17,21,9.90
2022,05,07,17,22,9.90
2022,05,07,17,23,9.80
2022,05,07,17,24,9.80
2022,05,07,17,25,9.80
2022,05,07,17,26,9.80
2022,05,07,17,27,9.70
2022,05,07,17,28,9.60
2022,05,07,17,29,9.60
2022,05,07,17,30,9.50
2022,05,07,17,31,9.50
2022,05,07,17,32,9.40
2022,05,07,17,33,9.40
2022,05,07,17,34,9.40
2022,05,07,17,35,9.40
2022,05,07,17,36,9.30
2022,05,07,17,37,9.30
2022,05,07,17,38,9.30
2022,05,07,17,39,9.30
2022,05,07,17,40,9.30
2022,05,07,17,41,9.40
2022,05,07,17,42,9.40
2022,05,07,17,43,9.50
2022,05,07,17,44,9.60
2022,05,07,17,45,9.70
2022,05,07,17,46,9.80
2022,05,07,17,47,9.90
2022,05,07,17,48,10.00
2022,05,07,17,49,10.10
2022,05,07,17,50,10.20
2022,05,07,17,51,10.20
2022,05,07,17,52,10.30
2022,05,07,17,53,10.30
2022,05,07,17,54,10.40
2022,05,07,17,55,10.40
2022,05,07,17,56,10.50
2022,05,07,17,57,10.50
2022,05,07,17,58,10.60
2022,05,07,17,59,10.60